User: anonymous   Login
Location: Alpha Ridge Park
(39.3209°N, 76.9128°W)
Time: 10:28:48
(UTC-04:00)
Language:

SR - Orbit

View from above orbital plane
View from above orbital plane
View from above satellite
View from above satellite

Ground track
Ground track

The orbit data is extracted from the following two-line orbital elements,

1    46U 60007B   19141.17333666  .00000004  00000-0  23905-4 0  9991
2    46  66.6920  29.1297 0203487  63.3250 298.8534 14.49226176 82117
Epoch (UTC): 21 May 2019 04:09:36
Eccentricity: 0.0203487
inclination: 66.6920°
perigee height: 583 km
apogee height: 873 km
right ascension of ascending node: 29.1297°
argument of perigee: 63.3250°
revolutions per day: 14.49226176
mean anomaly at epoch: 298.8534°
orbit number at epoch: 8211

The dashed part of the orbit path shows where the satellite is in the earth's shadow,  

DLR